SNUSat 2
1 43782U 18099AA  24221.69733560  .00013807  00000-0  94964-3 0  9995
2 43782  97.5097 277.3109 0015861 121.9888 238.2883 15.05920244310471
SnugLite
1 43784U 18099AC  24221.73895490  .00013849  00000-0  92312-3 0  9994
2 43784  97.4910 276.6647 0006123 124.8332 235.3473 15.07172729310553
ITASat 1
1 43786U 18099AE  24221.66262213  .00010938  00000-0  76958-3 0  9993
2 43786  97.5051 277.4641 0017661 169.1351 191.0261 15.05108521310467
EAGLET 1
1 43790U 18099AJ  24221.89594805  .00009454  00000-0  69587-3 0  9999
2 43790  97.5260 278.1793 0014716 146.6294 213.5862 15.03489384310198
ESEO
1 43792U 18099AL  24221.71106703  .00004823  00000-0  39158-3 0  9994
2 43792  97.5177 274.5257 0011731 133.3235 226.8969 15.00024300310076
CSIM
1 43793U 18099AM  24221.72470234  .00038626  00000-0  18818-2 0  9996
2 43793  97.5259 286.0654 0013108 130.6596 229.5779 15.18162223310746
JO-97
1 43803U 18099AX  24221.72133553  .00017468  00000-0  11177-2 0  9990
2 43803  97.5152 279.2536 0011009 121.8546 238.3756 15.08596669310611
Suomi 100
1 43804U 18099AY  24221.73504934  .00015456  00000-0  10119-2 0  9997
2 43804  97.5225 279.0503 0017008 121.0173 239.2728 15.07710602310598
ISAT
1 43879U 18111D   24221.71807560  .00019154  00000-0  11144-2 0  9991
2 43879  97.6128 127.2086 0013276 168.4616 191.6921 15.12020472305330
UWE-4
1 43880U 18111E   24221.73989921  .00018340  00000-0  10996-2 0  9997
2 43880  97.6057 127.1130 0016324 180.1723 179.9504 15.10903733305366
Sparrow
1 43881U 18111F   24221.73701340  .00020944  00000-0  12004-2 0  9990
2 43881  97.6225 129.2317 0008847 205.3673 154.7124 15.12583201305421
Prox-1
1 44339U 19036A   24220.51801930  .00014333  00000-0  23982-2 0  9999
2 44339  23.9986 254.8848 0008647 206.6412 153.3639 14.68136297272791
SONATE
1 44400U 19038Q   24221.79527520  .00037334  00000-0  10320-2 0  9999
2 44400  97.7140 218.3442 0012219 276.9229  83.0624 15.36867933282150
Taurus 1
1 44530U 19059C   24221.81695160  .00014533  00000-0  32853-2 0  9996
2 44530  98.5804 343.4213 0010838 248.7612 111.2427 14.56278317259426
Duchifat 3
1 44854U 19089C   24221.83325735  .00028562  00000-0  13553-2 0  9991
2 44854  36.9559  88.9065 0004612 202.9487 157.1055 15.18448061256202
TO-108
1 44881U 19093C   24221.84142584  .00002905  00000-0  35495-3 0  9999
2 44881  97.8257 297.6099 0015151 146.3436 213.8744 14.83954261250859
FloripaSat 1
1 44885U 19093G   24221.77667668  .00011917  00000-0  12064-2 0  9999
2 44885  97.8392 303.9735 0013486 138.4201 221.8045 14.91041887251205
RS-44
1 44909U 19096E   24221.64899765  .00000022  00000-0  50301-4 0  9993
2 44909  82.5181  69.9115 0216499 288.6751  69.0959 12.79732616215732
BY70-2
1 45857U 20042B   24221.80091882  .00928104  00000-0  95888-2 0  9998
2 45857  97.8953 319.7696 0011610 283.2806  76.7155 15.62192844222662
UPMSat 2
1 46276U 20061E   24221.90148674  .00030408  00000-0  86366-3 0  9991
2 46276  97.2928 287.6005 0000338 101.7829 258.3453 15.36135165218269
AmicalSat
1 46287U 20061R   24221.76397883  .00061294  00000-0  14445-2 0  9990
2 46287  97.3436 289.1888 0001562  79.8428 280.2996 15.41706982217657
SALSAT
1 46495U 20068K   24221.83163291  .00012663  00000-0  69777-3 0  9995
2 46495  97.8200 182.4901 0015460 128.6069 231.6549 15.14047568212274
UVSQ-SAT
1 47438U 21006AB  24221.72850756  .00114627  00000-0  16375-2 0  9991
2 47438  97.3197 283.1856 0003090  29.9842 330.1589 15.55852215196883
SOMP 2b
1 47445U 21006AJ  24221.72648812  .00092211  00000-0  15580-2 0  9998
2 47445  97.3154 281.1589 0004687  46.8644 313.3000 15.51277239196789
IDEASSat
1 47458U 21006AX  24221.74606791  .00075916  00000-0  14654-2 0  9998
2 47458  97.3273 281.5308 0004992  47.5185 312.6486 15.47533952196709
CubeSX-Sirius-HSE
1 47951U 21022V   24221.86401537  .00035490  00000-0  12822-2 0  9996
2 47951  97.4525 120.1684 0011145 319.8319  40.2095 15.28325853186612
CubeSX-HSE
1 47952U 21022W   24221.87884041  .00036888  00000-0  13276-2 0  9999
2 47952  97.4525 120.2850 0011056 318.7853  41.2551 15.28444154186626
KSU-Cubesat
1 47954U 21022Y   24221.69034302  .00045788  00000-0  14741-2 0  9995
2 47954  97.4532 121.6811 0009381 314.0626  45.9843 15.32029461186410
GRBAlpha
1 47959U 21022AD  24221.83990747  .00035709  00000-0  12820-2 0  9998
2 47959  97.4527 120.4048 0010877 319.4513  40.5916 15.28534116185441
Orbicraft-Zorkiy
1 47960U 21022AE  24221.82523592  .00043330  00000-0  14442-2 0  9990
2 47960  97.4568 121.8724 0009592 316.5194  43.5289 15.30923527186201
STECCO
1 47962U 21022AG  24221.55290891  .01051457  50919-3  27709-2 0  9992
2 47962  97.4401 134.7236 0010171 157.7630 202.4088 15.94768653186351
TUBIN
1 48900U 21059X   24221.86166846  .00028435  00000-0  91324-3 0  9998
2 48900  97.6526   8.1246 0005953 256.5561 103.5017 15.32240217172982
LEDSAT
1 49069U 21073D   24221.91298636  .00032552  00000-0  12199-2 0  9997
2 49069  97.4336 292.7581 0019481  99.0727 261.2717 15.27015711164493
CUTE
1 49263U 21088D   24221.89999403  .00033120  00000-0  14435-2 0  9993
2 49263  97.4925 287.6185 0012334 251.7434 108.2460 15.22047545157658
TeikyoSat 4
1 49396U 21102B   24221.58638105  .00004669  00000-0  33471-3 0  9990
2 49396  97.4566 264.7542 0015269  97.4947 262.8015 15.04733685150634
Z-Sat
1 49399U 21102E   24221.86654241  .00009177  00000-0  57983-3 0  9996
2 49399  97.4274 266.7099 0021678  78.8325 281.5340 15.09068441150934
KOSEN 1
1 49402U 21102H   24221.66459034  .00011677  00000-0  67302-3 0  9996
2 49402  97.4199 268.1511 0019882  63.8994 296.4280 15.12374540151078
HO-113
1 50466U 21131B   24221.87486228  .00001575  00000-0  51641-3 0  9993
2 50466  98.5276 306.7007 0003572 344.5770  15.5309 14.39783274137585
IRIS-A
1 51044U 22002BN  24221.73754701  .00035495  00000-0  10717-2 0  9999
2 51044  97.3802 288.1413 0006027 193.2660 166.8425 15.34160869142477
OreSat0
1 52017U 22026K   24221.53966368  .00176907  00000-0  17927-2 0  9992
2 52017  97.4895 238.5736 0008018  53.0414 307.1578 15.64647912133864
Planetum 1
1 52738U 22057G   24221.30679503  .00073581  00000-0  14448-2 0  9992
2 52738  97.5704 349.5438 0004521 307.9163  52.1677 15.47049805122619
Foresail-1
1 52766U 22057AL  24221.33775586  .00033045  00000-0  98603-3 0  9991
2 52766  97.5879 348.1797 0008381 305.6634  54.3828 15.34534169122443
SNUGLITE 2
1 52899U 22065F   24221.86044806  .00003438  00000-0  70878-3 0  9996
2 52899  98.1269   2.0117 0007457 357.7943   2.3224 14.61080022111956
IO-117
1 53106U 22080B   24220.17464831 -.00000003  00000-0  00000-0 0  9995
2 53106  70.1402 174.8068 0007673  95.8653 264.2881  6.42557506 48546
SelfieSat
1 53951U 22057BC  24221.85364749  .00313151  00000-0  23055-2 0  9997
2 53951  97.5675 355.4827 0007599 281.7313  78.3097 15.72105451123015
FO-118
1 54684U 22167C   24221.91541993  .00049118  00000-0  14960-2 0  9992
2 54684  97.6110   8.1406 0009181 317.1017  42.9508 15.33785586 92371
SSS-2B
1 56184U 23054G   24221.87035159  .00067831  00000-0  13912-2 0  9990
2 56184  97.3602 120.4571 0005096  19.4346 340.7096 15.45799689 74261
CIRBE
1 56188U 23054L   24221.66574006  .00156986  00000-0  17053-2 0  9990
2 56188  97.3510 123.2346 0002412  89.2949 270.8586 15.62966641 74458
INSPIRE-Sat 7
1 56211U 23054AK  24221.68167829  .00203310  00000-0  18284-2 0  9991
2 56211  97.3519 124.7688 0000909 122.3507 237.7842 15.67593978 74548
RoseyCubesat 1
1 56212U 23054AL  24221.58621698  .00358002  00000-0  20387-2 0  9996
2 56212  97.3508 126.0158 0003218 142.4630 217.6862 15.77966932 74612
SO-120
1 56992U 23084BU  24221.57776976  .00053729  00000-0  17289-2 0  9998
2 56992  97.5354 341.6494 0011841 199.3123 160.7671 15.31978769 64194
MRC-100
1 56993U 23084BV  24221.85736353  .00068248  00000-0  20030-2 0  9995
2 56993  97.5349 342.5297 0010973 198.3723 161.7125 15.34847597 64282
UmKA 1 (RS40S)
1 57172U 23091G   24221.88687578  .00010966  00000-0  70780-3 0  9992
2 57172  97.6077 273.4149 0015098 304.0782  55.9013 15.08346986 61434
CubeBel-2 (EU11S)
1 57175U 23091K   24221.87567852  .00013829  00000-0  86939-3 0  9990
2 57175  97.6078 273.4182 0013366 317.4249  42.5942 15.09276210 61433
VERONIKA
1 58261U 23174F   24221.78194529  .00032490  00000-0  13541-2 0  9999
2 58261  97.4570 296.1563 0012039  64.3438 295.9041 15.23573040 41714
KAFASAT
1 58317U 23174BP  24221.80479244  .00045343  00000-0  16741-2 0  9990
2 58317  97.4516 296.9979 0010054  41.3644 318.8354 15.27563919 41781
ENSO
1 58470U 23185J   24221.85169121  .00030682  00000-0  12128-2 0  9992
2 58470  97.4224 288.0806 0013319  96.3749 263.9006 15.25351065 38168
EIRSAT-1
1 58472U 23185L   24221.86745103  .00034663  00000-0  13365-2 0  9992
2 58472  97.4217 288.1880 0012735  97.4432 262.8254 15.26160926 38176
SO-121
1 58567U 23174CY  24220.75976565  .00086787  00000-0  24078-2 0  9997
2 58567  97.4496 296.8683 0008451  51.4309 308.7691 15.36552711 41683
SONATE-2
1 59112U 24043Q   24221.86053444  .00019348  00000-0  89631-3 0  9991
2 59112  97.4842 345.1934 0015530 109.9720 250.3189 15.20028270 23803
